Vorticity
12 13 14 16 16 16 16 14 11 8 5 4 4 4 4 4 6 6 6 7 6 6 5 6 7 6 5 7 11 13 12 6 5 5 7 8 7 5 4 4 3 3 4 6 9 14 18 20 13 6 3 7 7 4 0 -3 -2 1 6 11 13 12 10 9 9 8 7 5 5
5 7 9 11 12 11 10 8 6 4 3 3 3 3 3 2 6 7 6 5 6 8 8 6 8 7 4 0 4 10 14 13 7 6 6 6 5 4 4 4 5 7 10 13 14 16 16 15 10 7 7 10 6 2 -3 -7 -6 -1 4 10 12 12 11 11 10 7 5 3 3
3 5 7 9 8 7 5 3 2 3 3 4 6 8 8 6 8 10 12 11 9 8 6 4 5 7 7 2 0 5 11 12 9 6 5 4 4 4 4 4 7 11 14 14 15 14 12 8 6 5 5 4 2 -1 -4 -8 -7 -3 2 7 9 11 13 13 9 5 2 1 1
6 10 12 13 12 9 7 5 5 5 5 6 8 11 14 15 14 14 15 16 11 6 2 -0 1 4 6 5 -1 -3 -2 -0 6 8 6 5 4 3 4 5 9 11 11 7 9 11 10 5 0 -0 -0 -2 -3 -4 -5 -7 -6 -3 1 5 8 12 13 12 6 2 0 -0 0
9 12 15 16 15 13 12 12 11 10 9 8 7 8 10 12 15 16 16 15 13 9 5 2 4 5 6 3 -1 -8 -13 -8 4 8 8 6 3 1 1 5 11 13 11 4 2 4 7 6 2 -1 -2 -2 -2 -2 -3 -5 -7 -5 -1 7 13 14 13 8 3 1 -0 -0 0
8 9 10 11 11 12 14 16 17 16 13 10 5 2 0 -0 3 7 11 16 16 13 9 6 7 7 6 1 -6 -10 -9 1 6 8 8 7 2 -1 -2 3 11 15 14 8 3 3 5 9 8 6 3 1 2 2 0 -3 -6 -5 1 13 20 19 13 6 2 0 -0 0 0
5 4 4 3 3 5 7 11 14 15 15 13 8 3 -1 -5 -6 -5 -2 3 8 9 8 7 7 8 6 1 -4 -5 -1 7 8 9 10 9 5 -1 -3 0 9 13 13 9 5 5 7 11 11 9 7 4 2 1 -1 -3 -2 3 12 22 26 24 17 9 5 1 0 -0 1
1 -0 -1 -2 -2 -1 1 5 7 9 10 11 9 7 3 -0 -3 -4 -5 -4 -2 0 1 2 3 3 3 2 2 2 4 8 9 10 11 11 8 3 -0 -0 7 11 12 8 5 6 10 14 14 11 7 4 2 2 3 7 13 19 24 27 27 25 21 14 8 4 3 4 8
0 -1 -2 -3 -2 0 2 4 4 3 3 3 5 5 5 4 3 2 1 0 0 -0 -1 -2 -3 -4 -3 -1 2 4 5 5 7 9 11 13 12 9 5 2 6 10 11 8 3 3 5 10 11 8 5 2 5 10 16 22 24 24 25 25 26 26 24 21 16 14 13 13 12
3 2 2 3 4 5 5 3 -1 -2 -3 -1 1 3 4 5 5 4 4 4 4 5 5 4 1 -1 -3 -3 -1 1 2 3 6 8 10 12 13 12 9 5 5 7 8 6 -0 -5 -6 -5 -5 -6 -7 -3 10 19 24 23 21 22 24 26 28 30 30 28 24 19 14 8 5
5 7 8 9 8 6 3 -2 -3 -2 0 3 4 5 5 6 7 7 6 6 6 8 9 10 10 8 4 -0 -2 -1 3 8 10 10 9 8 8 8 8 6 4 4 3 1 -5 -11 -15 -18 -20 -21 -17 -3 15 23 23 19 20 21 23 25 26 26 25 21 15 8 2 -1 1
7 9 10 10 9 6 3 1 3 5 7 9 9 9 9 10 10 10 10 9 8 8 9 11 13 15 14 12 10 10 11 14 13 10 7 4 4 5 7 8 6 4 1 -2 -6 -9 -11 -13 -17 -17 -9 9 21 22 18 15 19 20 20 17 13 9 6 3 -0 -1 -1 1 4
9 9 9 9 8 8 7 9 12 14 15 15 14 12 11 10 10 9 9 10 10 10 11 13 18 23 28 30 27 23 19 15 14 14 14 15 16 17 19 19 18 15 12 8 7 7 8 9 5 7 12 24 23 17 12 12 16 16 11 3 -5 -8 -7 -5 -1 2 5 7 9
10 10 10 10 10 11 12 14 17 20 21 21 19 17 14 12 11 12 12 14 16 19 22 27 32 37 39 38 32 25 20 17 22 27 31 33 34 33 32 31 30 29 29 28 28 27 27 27 27 28 28 26 17 9 6 10 12 8 -1 -11 -13 -11 -5 1 5 8 10 11 11
13 13 13 12 12 13 13 14 16 18 20 21 21 21 21 22 23 25 27 30 34 38 41 45 47 45 41 33 27 24 23 27 32 36 38 39 38 37 35 34 34 36 39 42 41 39 37 36 35 32 26 16 6 2 3 8 5 -2 -9 -12 -8 -3 1 6 9 11 12 12 11
18 18 17 16 14 13 12 11 10 11 13 16 19 22 25 28 31 35 38 42 45 47 49 49 46 41 34 26 23 23 25 27 29 30 30 30 31 31 31 32 34 37 40 42 42 40 37 33 27 19 11 2 -3 -2 -0 1 -4 -7 -7 -5 -1 3 6 9 12 12 12 11 9
20 19 18 17 15 13 11 10 9 9 10 13 17 21 24 26 27 28 30 32 35 36 37 36 33 28 22 15 14 15 16 17 18 18 18 18 19 21 23 25 28 30 31 31 31 29 26 19 11 2 -4 -9 -9 -7 -6 -7 -8 -6 -2 2 5 7 10 12 13 12 10 9 9
13 13 14 16 16 16 16 16 15 15 15 17 18 19 18 15 13 12 12 14 16 17 18 17 15 10 5 1 2 4 6 8 9 10 10 11 12 13 14 15 17 19 19 18 16 14 10 4 -3 -9 -13 -13 -11 -10 -10 -9 -5 -1 4 7 9 10 12 13 14 12 10 11 11
3 6 8 12 16 19 21 21 21 20 19 18 17 14 10 5 2 0 0 1 1 2 2 2 1 -2 -5 -6 -4 -1 1 3 4 5 7 8 9 9 9 9 10 10 9 8 6 3 1 -3 -7 -10 -12 -10 -8 -7 -6 -2 3 7 9 10 11 12 13 14 15 15 14 15 15
-0 1 4 8 12 15 16 16 15 14 13 12 10 7 4 -0 -2 -3 -4 -4 -5 -6 -6 -5 -3 -3 -3 -3 -2 -1 1 2 3 4 5 5 6 7 7 7 7 7 6 5 3 1 -0 -2 -3 -4 -3 -2 -1 1 4 8 9 10 10 11 12 13 14 15 16 17 17 17 17
2 1 1 2 4 5 6 5 3 2 1 0 -0 -1 -2 -3 -4 -5 -5 -6 -7 -7 -6 -4 -1 0 1 0 0 1 2 3 4 4 4 4 4 4 4 4 5 5 4 4 3 3 3 2 3 3 4 5 6 7 8 9 9 9 10 11 13 14 15 16 16 17 17 17 15
4 1 -2 -4 -4 -3 -3 -4 -5 -7 -7 -7 -7 -6 -5 -5 -5 -5 -5 -5 -4 -2 -0 2 4 4 3 3 3 3 4 5 5 5 5 4 4 3 3 3 3 3 3 3 4 4 5 5 6 6 7 7 7 7 7 7 8 9 11 12 14 15 15 16 16 15 14 13 12
3 0 -3 -7 -8 -9 -8 -8 -8 -9 -9 -7 -6 -5 -4 -3 -3 -3 -2 -1 2 4 6 7 8 7 7 6 7 7 7 7 7 7 7 7 6 6 6 5 5 5 5 5 5 5 5 6 7 7 6 6 6 6 7 8 8 10 11 13 14 14 14 14 12 11 10 9 6
1 0 -1 -4 -7 -8 -9 -7 -6 -6 -5 -3 -2 -1 -0 1 3 4 4 5 6 7 8 9 10 10 10 10 10 9 8 8 8 8 9 9 9 10 10 10 10 9 8 7 7 6 5 5 5 5 5 5 6 7 8 8 8 9 11 12 13 12 11 9 8 8 7 5 -1
1 1 2 2 2 1 -1 -0 1 1 2 2 2 3 4 7 9 10 10 9 9 9 9 10 12 11 10 8 10 11 12 11 11 11 10 10 10 11 11 10 10 9 8 6 6 5 4 3 3 3 4 6 7 8 7 7 7 9 11 12 12 9 6 5 5 6 5 1 -6
1 1 4 7 7 6 5 5 4 4 3 3 3 4 6 8 9 10 10 9 10 10 11 11 10 8 8 9 10 10 10 8 11 12 11 10 9 8 7 5 5 5 4 4 4 4 4 4 5 6 8 9 8 6 5 5 7 9 11 12 11 7 4 1 3 5 3 -2 -8
5 5 5 7 4 4 6 7 6 5 5 5 5 5 4 5 7 8 9 10 10 11 11 11 12 11 9 7 6 6 5 4 5 4 2 2 2 2 1 2 3 3 3 3 4 5 7 8 9 9 9 8 6 5 5 6 8 10 11 11 10 8 4 1 1 1 -0 -5 -9
8 7 7 7 5 6 6 5 7 9 9 8 6 4 4 5 7 9 10 11 10 10 10 11 9 7 5 5 5 5 5 5 4 3 2 0 0 1 3 5 6 6 6 6 7 8 8 7 8 8 8 7 6 7 8 10 11 11 12 12 10 8 5 1 -1 -2 -5 -8 -9
12 13 12 9 6 6 7 5 7 9 10 11 8 6 6 8 9 7 6 5 3 3 4 5 4 4 4 5 5 5 6 6 5 5 4 3 4 5 6 7 8 9 9 10 10 10 10 8 8 8 9 10 10 10 11 12 11 11 11 11 9 6 2 -1 -4 -7 -9 -9 -5
12 12 10 7 6 5 5 5 5 5 7 8 8 8 9 9 9 9 8 5 6 7 8 6 5 5 5 5 5 5 6 6 6 5 4 4 4 5 6 8 9 10 11 12 13 13 13 13 13 13 13 13 12 12 11 10 10 9 8 6 3 0 -3 -5 -7 -8 -8 -4 4
5 2 -0 -0 6 8 7 5 5 6 6 4 3 2 1 2 3 2 1 2 4 5 5 6 6 7 7 7 6 6 7 7 6 5 5 5 5 6 7 8 9 10 11 12 13 14 15 15 15 14 14 14 13 11 10 8 7 5 3 1 -1 -3 -5 -7 -7 -4 0 7 13
7 6 6 7 13 16 16 10 7 7 7 8 8 9 9 9 8 8 8 8 8 8 8 8 8 8 8 8 8 8 8 8 7 7 6 6 7 8 8 9 10 11 12 12 13 13 14 13 13 13 12 12 11 10 8 6 4 3 2 0 -1 -3 -4 -3 1 6 12 18 20
10 10 10 10 5 3 3 3 4 5 6 8 9 10 11 10 9 9 10 10 10 10 10 10 10 9 9 9 9 9 9 9 9 8 8 8 8 8 9 10 11 11 12 12 11 11 10 9 9 9 9 9 8 7 6 5 5 4 3 1 0 1 3 7 13 18 21 23 22
11 10 10 9 6 3 1 2 4 6 7 8 10 11 11 11 12 12 13 14 13 13 12 12 12 12 12 11 11 11 11 11 10 10 9 9 8 9 9 10 10 10 10 9 8 7 5 5 5 5 5 5 5 5 5 5 5 4 4 3 5 8 12 16 19 21 22 20 17
10 10 10 9 8 8 7 7 7 7 7 8 8 10 11 12 13 14 15 15 14 14 14 14 15 14 14 14 13 13 12 12 12 11 10 10 10 10 10 9 9 8 7 5 4 2 1 1 2 2 3 4 4 5 5 5 5 5 5 7 10 13 16 19 19 18 16 13 11
11 11 10 10 10 10 10 10 9 9 9 9 9 9 10 11 13 14 14 14 14 14 14 14 15 15 15 15 15 14 13 12 12 11 11 11 11 10 9 8 8 6 4 2 1 0 0 1 2 3 5 6 6 7 7 7 7 7 9 11 14 16 17 16 15 12 10 8 7
12 12 11 11 11 11 11 11 11 11 11 11 10 10 9 8 9 10 11 11 11 12 13 13 14 14 15 15 14 13 12 11 10 10 10 10 9 8 7 6 5 3 2 1 1 2 3 5 7 8 9 10 9 9 9 9 9 10 12 14 14 14 13 11 9 7 6 6 7
11 11 11 11 11 11 11 12 12 13 13 13 12 11 10 8 8 8 8 8 7 8 8 10 11 12 12 11 10 9 8 7 6 6 6 6 5 4 3 2 1 1 1 3 5 8 10 12 12 12 12 12 11 10 10 10 10 11 12 12 10 9 8 6 5 5 6 7 8
8 8 8 8 9 9 10 10 11 12 13 13 13 12 12 11 10 9 7 6 4 3 3 4 5 6 6 5 4 4 4 3 4 4 4 5 4 2 1 1 1 3 5 8 10 12 12 12 12 11 11 11 10 10 10 10 10 10 9 8 7 6 6 5 6 6 7 9 10
3 4 4 4 5 5 5 6 7 8 9 10 10 11 11 11 11 10 8 6 4 2 1 1 1 1 1 1 2 2 3 4 4 5 5 5 5 4 4 5 6 7 8 9 9 8 8 7 7 7 7 8 8 8 8 8 8 8 8 7 7 7 7 7 8 9 10 11 11
3 3 3 3 2 2 2 3 3 3 4 4 5 6 7 8 9 10 10 9 7 5 3 2 2 1 2 2 3 4 4 5 5 6 6 6 6 6 7 7 6 6 5 5 4 4 4 4 4 4 5 5 6 6 7 7 8 8 8 9 9 9 9 10 11 11 12 11 11
Height
5706 5707 5708 5710 5712 5713 5715 5717 5718 5721 5725 5729 5731 5731 5731 5732 5732 5733 5734 5736 5737 5738 5739 5740 5742 5743 5745 5747 5748 5748 5748 5749 5750 5751 5753 5754 5755 5756 5757 5758 5759 5760 5760 5761 5763 5764 5765 5766 5767 5768 5770 5772 5777 5779 5779 5778 5774 5772 5772 5773 5773 5773 5774 5774 5775 5775 5776 5776 5777
5705 5707 5708 5709 5711 5712 5714 5716 5717 5720 5723 5726 5726 5727 5729 5730 5731 5731 5732 5733 5734 5735 5736 5738 5740 5741 5742 5743 5746 5747 5747 5747 5748 5749 5751 5752 5753 5754 5755 5756 5757 5758 5758 5760 5761 5762 5763 5764 5766 5766 5768 5772 5776 5777 5775 5775 5771 5770 5770 5770 5771 5771 5772 5772 5772 5773 5773 5773 5774
5704 5706 5707 5708 5709 5711 5713 5714 5716 5718 5721 5723 5723 5724 5725 5728 5729 5730 5730 5731 5732 5733 5735 5737 5738 5738 5738 5740 5743 5746 5748 5746 5746 5748 5749 5750 5752 5753 5754 5754 5755 5756 5758 5760 5760 5761 5761 5763 5763 5765 5768 5772 5772 5772 5770 5768 5768 5768 5768 5768 5768 5768 5769 5769 5769 5770 5770 5771 5772
5703 5704 5705 5707 5708 5710 5711 5713 5715 5716 5718 5721 5721 5722 5724 5725 5727 5728 5730 5731 5730 5731 5733 5735 5737 5737 5737 5738 5740 5744 5746 5744 5744 5745 5747 5748 5749 5751 5752 5752 5753 5754 5757 5759 5760 5760 5759 5760 5761 5763 5766 5767 5768 5767 5766 5765 5765 5765 5765 5765 5765 5766 5766 5767 5767 5768 5768 5768 5769
5701 5702 5703 5705 5707 5708 5710 5712 5713 5715 5716 5718 5719 5721 5722 5723 5724 5726 5728 5730 5729 5729 5731 5733 5733 5734 5736 5739 5741 5742 5742 5742 5742 5743 5744 5746 5747 5748 5749 5750 5751 5752 5753 5755 5758 5758 5758 5758 5759 5761 5762 5763 5763 5763 5763 5763 5763 5763 5763 5763 5763 5763 5763 5764 5764 5765 5765 5766 5766
5701 5701 5702 5703 5705 5707 5709 5711 5712 5713 5714 5716 5717 5718 5720 5721 5722 5723 5724 5725 5727 5728 5729 5731 5732 5733 5735 5738 5741 5741 5740 5739 5740 5741 5742 5743 5745 5746 5747 5748 5748 5749 5750 5751 5753 5754 5755 5756 5758 5759 5760 5761 5761 5761 5760 5760 5760 5760 5760 5760 5760 5760 5761 5761 5761 5762 5763 5763 5763
5700 5701 5702 5703 5704 5706 5708 5709 5710 5711 5712 5713 5715 5716 5718 5719 5720 5721 5723 5724 5725 5727 5728 5730 5731 5732 5733 5735 5738 5739 5738 5738 5738 5738 5739 5741 5742 5743 5744 5745 5746 5747 5748 5749 5750 5752 5753 5755 5756 5758 5759 5761 5760 5759 5758 5758 5758 5758 5758 5758 5757 5757 5758 5758 5758 5759 5760 5761 5761
5698 5699 5700 5702 5703 5704 5705 5707 5708 5709 5710 5712 5713 5714 5715 5717 5718 5719 5720 5722 5723 5725 5727 5729 5731 5732 5733 5734 5735 5736 5736 5735 5735 5736 5737 5738 5739 5741 5742 5743 5744 5745 5746 5747 5749 5750 5752 5753 5754 5756 5757 5757 5757 5756 5755 5755 5756 5756 5756 5755 5754 5754 5755 5755 5756 5757 5758 5758 5758
5697 5698 5698 5700 5701 5702 5703 5704 5705 5707 5708 5709 5711 5712 5713 5714 5715 5716 5718 5719 5720 5722 5725 5727 5730 5732 5733 5733 5733 5733 5733 5733 5733 5733 5735 5736 5737 5738 5739 5741 5742 5743 5744 5745 5747 5748 5749 5750 5751 5752 5752 5752 5753 5753 5753 5753 5753 5753 5753 5752 5752 5752 5752 5753 5753 5754 5755 5756 5756
5695 5696 5697 5698 5699 5700 5701 5702 5703 5704 5705 5706 5708 5709 5711 5712 5713 5713 5714 5716 5718 5720 5722 5724 5726 5728 5729 5730 5730 5730 5730 5731 5731 5731 5732 5733 5735 5736 5737 5738 5740 5741 5742 5743 5745 5746 5747 5747 5747 5748 5749 5750 5751 5751 5751 5751 5750 5750 5750 5749 5750 5750 5750 5751 5751 5752 5753 5753 5753
5693 5694 5695 5696 5697 5698 5699 5701 5702 5703 5704 5706 5706 5708 5709 5710 5711 5711 5712 5713 5715 5716 5718 5720 5722 5723 5724 5726 5727 5727 5727 5727 5728 5729 5730 5731 5732 5733 5735 5736 5738 5739 5740 5741 5743 5744 5744 5744 5745 5745 5746 5748 5749 5749 5748 5748 5748 5748 5749 5749 5748 5748 5748 5749 5749 5749 5749 5749 5749
5691 5692 5693 5693 5695 5696 5698 5701 5703 5704 5706 5708 5708 5708 5708 5708 5709 5709 5710 5711 5712 5713 5714 5716 5718 5718 5720 5722 5723 5724 5725 5725 5726 5727 5728 5729 5730 5731 5732 5733 5735 5736 5737 5738 5739 5740 5741 5742 5743 5744 5745 5746 5746 5746 5745 5745 5747 5747 5748 5747 5746 5746 5746 5746 5747 5746 5746 5746 5746
5689 5690 5691 5692 5693 5695 5698 5700 5702 5704 5706 5707 5708 5708 5708 5708 5708 5708 5709 5709 5710 5711 5712 5713 5713 5714 5716 5718 5719 5721 5723 5724 5725 5726 5727 5727 5728 5728 5729 5730 5731 5732 5733 5734 5735 5736 5737 5739 5741 5743 5744 5743 5743 5743 5743 5744 5745 5745 5745 5745 5743 5743 5743 5743 5743 5743 5743 5743 5743
5688 5688 5688 5690 5692 5694 5696 5698 5699 5701 5703 5704 5705 5705 5705 5705 5705 5706 5707 5707 5708 5708 5709 5710 5711 5711 5712 5714 5716 5718 5720 5722 5723 5723 5723 5723 5724 5724 5725 5725 5726 5728 5728 5730 5731 5733 5734 5736 5739 5740 5740 5739 5739 5739 5741 5743 5743 5743 5742 5741 5741 5740 5741 5741 5740 5740 5740 5739 5739
5684 5685 5686 5688 5689 5691 5692 5694 5695 5697 5698 5699 5700 5700 5701 5701 5702 5703 5704 5704 5704 5705 5706 5707 5708 5708 5708 5710 5712 5715 5718 5720 5720 5720 5720 5720 5720 5721 5721 5722 5723 5723 5725 5726 5728 5729 5732 5734 5736 5736 5735 5735 5736 5737 5739 5740 5740 5740 5739 5738 5738 5738 5738 5738 5737 5737 5737 5736 5736
5683 5683 5685 5686 5687 5688 5689 5691 5692 5693 5695 5695 5696 5697 5697 5698 5699 5700 5701 5701 5702 5702 5703 5703 5704 5705 5706 5707 5709 5713 5716 5717 5717 5717 5717 5717 5718 5718 5719 5720 5720 5721 5722 5723 5725 5727 5728 5730 5730 5730 5731 5732 5733 5735 5737 5737 5736 5735 5735 5734 5734 5734 5734 5734 5734 5735 5735 5734 5733
5682 5683 5683 5684 5685 5687 5688 5689 5690 5691 5692 5693 5693 5694 5695 5696 5697 5698 5698 5699 5699 5700 5700 5701 5702 5702 5703 5704 5707 5710 5712 5713 5713 5714 5714 5714 5715 5716 5717 5717 5718 5718 5719 5720 5722 5723 5724 5725 5726 5727 5728 5729 5730 5732 5733 5733 5733 5732 5731 5731 5731 5731 5731 5731 5731 5732 5733 5732 5731
5680 5681 5682 5683 5684 5685 5686 5687 5688 5689 5690 5691 5692 5693 5693 5694 5695 5696 5696 5697 5697 5698 5698 5699 5700 5701 5702 5703 5705 5707 5708 5709 5710 5711 5711 5712 5712 5713 5714 5714 5715 5716 5717 5717 5718 5719 5720 5721 5723 5723 5725 5726 5727 5729 5729 5729 5729 5728 5728 5728 5728 5728 5728 5728 5728 5728 5729 5728 5727
5678 5679 5680 5681 5683 5683 5684 5685 5686 5687 5688 5689 5690 5691 5692 5693 5693 5694 5694 5695 5696 5696 5697 5698 5698 5699 5700 5702 5703 5704 5705 5706 5707 5708 5708 5709 5710 5711 5711 5712 5713 5713 5714 5715 5716 5717 5718 5719 5720 5721 5722 5723 5724 5725 5725 5725 5725 5724 5724 5724 5724 5724 5724 5724 5724 5724 5724 5724 5724
5676 5678 5678 5679 5680 5681 5682 5683 5684 5685 5686 5687 5688 5689 5689 5690 5691 5692 5693 5693 5694 5695 5696 5696 5697 5698 5699 5700 5701 5702 5703 5704 5705 5706 5706 5707 5708 5708 5709 5710 5711 5712 5713 5713 5714 5715 5716 5717 5717 5718 5719 5721 5721 5721 5721 5721 5721 5721 5721 5721 5721 5721 5721 5721 5721 5721 5721 5721 5721
5674 5675 5676 5677 5678 5679 5680 5681 5682 5683 5683 5684 5685 5686 5687 5688 5689 5690 5691 5692 5693 5693 5694 5695 5696 5697 5698 5698 5699 5700 5701 5702 5703 5703 5704 5705 5706 5706 5707 5708 5709 5709 5710 5711 5712 5713 5713 5714 5715 5716 5717 5718 5718 5717 5717 5718 5718 5718 5718 5718 5718 5718 5718 5718 5718 5718 5718 5718 5719
5672 5673 5674 5675 5676 5677 5678 5679 5680 5681 5682 5683 5683 5684 5685 5686 5687 5688 5688 5689 5690 5692 5693 5693 5694 5695 5696 5697 5697 5698 5698 5699 5700 5701 5702 5703 5704 5704 5705 5706 5707 5707 5708 5709 5709 5710 5711 5713 5714 5714 5715 5714 5714 5714 5714 5715 5715 5715 5715 5715 5715 5715 5715 5715 5715 5715 5716 5716 5716
5669 5670 5672 5673 5674 5675 5676 5677 5678 5679 5680 5680 5681 5682 5683 5683 5684 5685 5686 5687 5688 5689 5690 5691 5692 5693 5694 5695 5695 5696 5696 5697 5698 5699 5700 5701 5702 5703 5703 5704 5705 5705 5706 5707 5708 5709 5710 5711 5712 5712 5712 5711 5711 5711 5712 5712 5712 5712 5712 5712 5712 5712 5712 5713 5713 5713 5713 5713 5714
5667 5668 5669 5670 5673 5674 5675 5676 5677 5677 5678 5678 5678 5679 5680 5681 5682 5683 5684 5685 5686 5687 5688 5689 5690 5691 5691 5692 5693 5694 5695 5695 5696 5697 5698 5698 5700 5701 5701 5702 5703 5703 5704 5705 5706 5707 5707 5708 5708 5708 5708 5708 5708 5708 5708 5709 5709 5709 5709 5709 5709 5709 5709 5710 5710 5710 5711 5711 5711
5666 5667 5667 5668 5669 5670 5671 5672 5673 5674 5675 5676 5676 5678 5678 5679 5680 5681 5682 5683 5683 5684 5686 5687 5688 5688 5689 5690 5691 5692 5693 5693 5694 5695 5695 5696 5697 5698 5699 5699 5700 5701 5701 5702 5703 5703 5703 5704 5705 5705 5705 5705 5705 5705 5705 5705 5706 5706 5706 5706 5707 5707 5707 5707 5707 5708 5708 5708 5708
5664 5665 5665 5666 5666 5667 5667 5668 5669 5671 5672 5673 5674 5675 5676 5677 5678 5679 5680 5680 5681 5682 5683 5685 5686 5686 5686 5687 5688 5689 5690 5691 5692 5693 5693 5693 5694 5695 5696 5696 5697 5698 5698 5699 5699 5700 5700 5701 5701 5702 5702 5702 5702 5702 5702 5702 5702 5703 5703 5703 5703 5703 5704 5704 5704 5704 5705 5705 5705
5663 5663 5664 5664 5665 5665 5665 5666 5667 5668 5669 5670 5672 5673 5674 5675 5676 5677 5677 5678 5679 5680 5682 5683 5683 5684 5684 5685 5686 5687 5688 5689 5690 5690 5690 5691 5691 5692 5693 5693 5694 5694 5695 5695 5696 5697 5697 5697 5698 5698 5699 5700 5699 5699 5699 5699 5699 5699 5700 5700 5700 5700 5701 5701 5701 5701 5702 5702 5702
5659 5660 5661 5662 5663 5663 5663 5664 5665 5665 5666 5668 5669 5670 5671 5672 5673 5674 5675 5676 5677 5678 5679 5680 5680 5681 5682 5683 5684 5685 5686 5687 5687 5688 5688 5688 5688 5689 5689 5690 5691 5691 5692 5692 5693 5693 5693 5694 5695 5695 5695 5696 5696 5696 5696 5696 5696 5696 5696 5697 5697 5697 5697 5698 5698 5698 5698 5698 5698
5657 5657 5658 5659 5660 5661 5662 5663 5663 5663 5664 5666 5667 5668 5669 5670 5671 5672 5673 5674 5675 5676 5677 5677 5678 5679 5680 5681 5681 5682 5683 5684 5684 5685 5685 5685 5686 5686 5686 5687 5687 5688 5688 5689 5689 5690 5690 5691 5691 5692 5692 5692 5692 5692 5693 5693 5693 5693 5693 5693 5693 5694 5694 5694 5694 5695 5695 5695 5694
5656 5656 5657 5658 5658 5659 5660 5660 5660 5662 5663 5664 5665 5666 5667 5668 5668 5669 5671 5672 5673 5674 5674 5675 5675 5676 5677 5678 5678 5679 5680 5681 5681 5682 5682 5682 5683 5683 5683 5684 5684 5684 5685 5685 5686 5686 5687 5687 5687 5688 5688 5688 5689 5689 5689 5689 5689 5689 5690 5690 5690 5691 5691 5691 5691 5691 5691 5691 5691
5655 5656 5656 5656 5657 5658 5658 5658 5659 5660 5662 5662 5662 5663 5664 5665 5666 5667 5668 5669 5670 5671 5671 5672 5673 5673 5674 5674 5675 5676 5677 5677 5678 5678 5678 5679 5679 5680 5680 5681 5681 5681 5682 5682 5683 5683 5683 5683 5684 5684 5685 5685 5686 5686 5686 5686 5686 5686 5687 5687 5687 5687 5688 5688 5688 5688 5687 5687 5687
5652 5653 5654 5656 5656 5657 5657 5657 5657 5658 5659 5660 5660 5661 5662 5663 5663 5664 5665 5666 5667 5667 5668 5669 5670 5670 5671 5671 5672 5673 5673 5674 5674 5674 5675 5675 5676 5676 5677 5677 5678 5678 5678 5679 5679 5679 5680 5680 5681 5681 5682 5682 5682 5683 5683 5683 5683 5683 5683 5683 5683 5684 5684 5684 5684 5683 5683 5683 5683
5649 5650 5651 5653 5654 5654 5654 5653 5653 5654 5656 5657 5657 5658 5659 5660 5660 5661 5662 5663 5663 5664 5665 5666 5666 5667 5668 5668 5669 5669 5670 5670 5671 5671 5671 5672 5672 5673 5673 5673 5674 5674 5675 5675 5676 5676 5677 5677 5678 5678 5678 5679 5679 5679 5679 5679 5680 5680 5680 5680 5680 5680 5680 5680 5679 5679 5679 5679 5679
5647 5648 5648 5649 5650 5650 5651 5650 5650 5651 5651 5653 5653 5654 5655 5656 5657 5658 5659 5659 5660 5661 5662 5662 5663 5663 5664 5665 5665 5666 5666 5667 5667 5668 5668 5668 5669 5669 5670 5670 5670 5671 5672 5672 5673 5673 5673 5673 5674 5674 5675 5675 5676 5676 5676 5676 5676 5676 5676 5676 5676 5675 5675 5675 5675 5675 5675 5675 5675
5645 5646 5646 5647 5648 5648 5648 5648 5648 5649 5649 5650 5650 5651 5652 5653 5654 5655 5655 5656 5657 5658 5658 5659 5659 5660 5661 5661 5662 5663 5663 5663 5664 5664 5664 5665 5665 5666 5666 5667 5667 5668 5668 5669 5669 5670 5670 5670 5671 5671 5672 5672 5673 5673 5673 5673 5672 5672 5672 5671 5671 5671 5671 5671 5671 5671 5671 5671 5671
5643 5643 5644 5645 5645 5645 5646 5646 5647 5647 5647 5648 5648 5648 5649 5650 5650 5651 5652 5653 5654 5654 5655 5656 5656 5657 5658 5658 5658 5659 5660 5660 5660 5661 5661 5662 5662 5663 5663 5663 5664 5664 5665 5666 5666 5666 5667 5667 5667 5668 5668 5668 5669 5669 5668 5668 5668 5668 5668 5668 5667 5667 5668 5668 5668 5668 5668 5668 5668
5640 5641 5642 5642 5643 5643 5643 5644 5644 5644 5645 5645 5646 5646 5647 5647 5648 5648 5649 5650 5651 5652 5652 5653 5653 5654 5654 5655 5655 5656 5657 5657 5658 5658 5658 5659 5659 5660 5660 5661 5661 5661 5662 5663 5663 5663 5663 5663 5663 5664 5664 5664 5665 5664 5664 5664 5664 5664 5664 5664 5664 5664 5664 5664 5664 5664 5664 5664 5664
5638 5639 5639 5639 5640 5640 5641 5641 5642 5642 5642 5643 5643 5644 5644 5645 5645 5646 5647 5647 5648 5649 5649 5650 5651 5651 5652 5652 5653 5653 5654 5654 5655 5655 5656 5656 5656 5657 5657 5658 5658 5658 5658 5659 5659 5659 5659 5659 5659 5660 5660 5661 5661 5661 5661 5661 5661 5661 5661 5661 5661 5661 5661 5661 5661 5661 5661 5660 5660
5635 5636 5637 5637 5638 5638 5638 5639 5639 5640 5640 5641 5641 5642 5642 5643 5643 5643 5644 5645 5646 5646 5647 5647 5648 5648 5649 5649 5650 5650 5651 5651 5652 5652 5653 5653 5653 5653 5654 5654 5654 5654 5655 5655 5655 5655 5655 5655 5656 5656 5656 5657 5657 5657 5657 5657 5658 5657 5657 5657 5657 5657 5657 5657 5657 5657 5657 5656 5656
5633 5633 5634 5634 5635 5635 5636 5636 5637 5637 5638 5638 5639 5639 5640 5640 5641 5641 5642 5642 5643 5643 5644 5644 5645 5645 5646 5646 5647 5647 5648 5648 5648 5649 5649 5649 5649 5650 5650 5650 5650 5651 5651 5651 5651 5652 5652 5652 5652 5652 5653 5653 5653 5653 5654 5654 5654 5654 5654 5653 5654 5653 5653 5653 5653 5653 5653 5653 5652
5629 5630 5630 5631 5631 5632 5633 5633 5633 5634 5634 5635 5636 5637 5637 5638 5638 5639 5639 5640 5640 5641 5641 5641 5642 5642 5642 5643 5643 5644 5644 5644 5645 5645 5645 5645 5646 5646 5646 5647 5647 5647 5647 5647 5648 5648 5648 5648 5648 5648 5648 5649 5649 5650 5650 5650 5651 5650 5650 5650 5650 5650 5650 5649 5649 5649 5649 5649 5648